Time,TemperatureF,DewpointF,PressureIn,WindDirection,WindDirectionDegrees,WindSpeedMPH,WindSpeedGustMPH,Humidity,HourlyPrecipIn,Conditions,Clouds,dailyrainin,SoftwareType,DateUTC
2013-02-20 00:04:00,17.3,10.3,30.38,North,359,0.0,0.0,73,0.00,,,-99.99,Meteorologica,2013-02-20 06:04:00,
2013-02-20 00:09:00,17.2,10.0,30.38,North,359,0.0,0.0,72,0.00,,,-99.99,Meteorologica,2013-02-20 06:09:00,
2013-02-20 00:14:00,17.2,10.1,30.37,North,359,0.0,0.0,73,0.00,,,-99.99,Meteorologica,2013-02-20 06:14:00,
2013-02-20 00:19:00,17.1,10.1,30.36,North,359,0.0,0.0,73,0.00,,,-99.99,Meteorologica,2013-02-20 06:19:00,
2013-02-20 00:24:00,17.2,10.0,30.37,North,359,0.0,0.0,72,0.00,,,-99.99,Meteorologica,2013-02-20 06:24:00,
2013-02-20 00:29:00,17.2,9.9,30.37,North,359,0.0,0.0,72,0.00,,,-99.99,Meteorologica,2013-02-20 06:29:00,
2013-02-20 00:35:00,17.1,9.9,30.37,North,359,0.0,0.0,72,0.00,,,-99.99,Meteorologica,2013-02-20 06:35:00,
2013-02-20 00:40:00,17.0,9.9,30.38,North,359,0.0,0.0,73,0.00,,,-99.99,Meteorologica,2013-02-20 06:40:00,
2013-02-20 00:45:00,16.9,9.8,30.39,North,359,0.0,0.0,73,0.00,,,-99.99,Meteorologica,2013-02-20 06:45:00,
2013-02-20 00:50:00,16.8,9.8,30.38,North,359,0.0,0.0,73,0.00,,,-99.99,Meteorologica,2013-02-20 06:50:00,
2013-02-20 00:55:00,16.7,9.6,30.38,North,359,0.0,0.0,73,0.00,,,-99.99,Meteorologica,2013-02-20 06:55:00,
2013-02-20 01:00:00,16.7,9.5,30.38,North,359,0.0,0.0,72,0.00,,,-99.99,Meteorologica,2013-02-20 07:00:00,
2013-02-20 01:05:00,16.7,9.6,30.38,North,359,0.0,0.0,72,0.00,,,-99.99,Meteorologica,2013-02-20 07:05:00,
2013-02-20 01:10:00,16.8,9.6,30.38,North,359,0.0,0.0,72,0.00,,,-99.99,Meteorologica,2013-02-20 07:10:00,
2013-02-20 01:15:00,16.7,9.3,30.37,North,359,0.0,0.0,72,0.00,,,-99.99,Meteorologica,2013-02-20 07:15:00,
2013-02-20 01:20:00,16.8,9.5,30.37,North,359,0.0,0.0,72,0.00,,,-99.99,Meteorologica,2013-02-20 07:20:00,
2013-02-20 01:25:00,16.8,9.5,30.37,North,359,0.0,0.0,72,0.00,,,-99.99,Meteorologica,2013-02-20 07:25:00,
2013-02-20 01:30:00,16.7,9.6,30.37,North,359,0.0,0.0,72,0.00,,,-99.99,Meteorologica,2013-02-20 07:30:00,
2013-02-20 01:35:00,16.7,9.5,30.37,North,359,0.0,0.0,72,0.00,,,-99.99,Meteorologica,2013-02-20 07:35:00,
2013-02-20 01:40:00,16.6,9.5,30.37,North,359,0.0,0.0,73,0.00,,,-99.99,Meteorologica,2013-02-20 07:40:00,
2013-02-20 01:45:00,16.5,9.4,30.37,North,359,0.0,0.0,73,0.00,,,-99.99,Meteorologica,2013-02-20 07:45:00,
2013-02-20 01:50:00,16.4,9.5,30.36,North,359,0.0,0.0,73,0.00,,,-99.99,Meteorologica,2013-02-20 07:50:00,
2013-02-20 01:55:00,16.3,9.3,30.35,North,359,0.0,0.0,73,0.00,,,-99.99,Meteorologica,2013-02-20 07:55:00,
2013-02-20 02:00:00,16.2,9.5,30.35,North,359,0.0,0.0,74,0.00,,,-99.99,Meteorologica,2013-02-20 08:00:00,
2013-02-20 02:05:00,16.2,9.3,30.35,North,359,0.0,0.0,73,0.00,,,-99.99,Meteorologica,2013-02-20 08:05:00,
2013-02-20 02:11:00,16.1,9.2,30.35,North,359,0.0,0.0,73,0.00,,,-99.99,Meteorologica,2013-02-20 08:11:00,
2013-02-20 02:16:00,16.1,9.2,30.35,NE,40,2.0,6.9,73,0.00,,,-99.99,Meteorologica,2013-02-20 08:16:00,
2013-02-20 02:21:00,16.1,9.3,30.35,NE,49,0.0,2.4,73,0.00,,,-99.99,Meteorologica,2013-02-20 08:21:00,
2013-02-20 02:26:00,16.0,9.2,30.36,NE,49,0.0,0.0,74,0.00,,,-99.99,Meteorologica,2013-02-20 08:26:00,
2013-02-20 02:31:00,16.1,9.2,30.37,NE,49,0.0,0.0,73,0.00,,,-99.99,Meteorologica,2013-02-20 08:31:00,
2013-02-20 02:36:00,16.0,9.1,30.36,NE,49,0.0,0.0,73,0.00,,,-99.99,Meteorologica,2013-02-20 08:36:00,
2013-02-20 02:41:00,16.1,9.3,30.36,NE,49,0.0,0.0,73,0.00,,,-99.99,Meteorologica,2013-02-20 08:41:00,
2013-02-20 02:46:00,16.0,9.2,30.36,NE,49,0.0,0.0,74,0.00,,,-99.99,Meteorologica,2013-02-20 08:46:00,
2013-02-20 02:51:00,15.9,9.2,30.36,NE,49,0.0,0.0,74,0.00,,,-99.99,Meteorologica,2013-02-20 08:51:00,
2013-02-20 02:56:00,15.8,9.2,30.35,NE,49,0.0,0.0,74,0.00,,,-99.99,Meteorologica,2013-02-20 08:56:00,
2013-02-20 03:01:00,15.8,9.2,30.35,NE,49,0.0,0.0,74,0.00,,,-99.99,Meteorologica,2013-02-20 09:01:00,
2013-02-20 03:06:00,15.7,9.3,30.35,NE,49,0.0,0.0,75,0.00,,,-99.99,Meteorologica,2013-02-20 09:06:00,
2013-02-20 03:11:00,15.6,9.1,30.35,NE,49,0.0,0.0,75,0.00,,,-99.99,Meteorologica,2013-02-20 09:11:00,
2013-02-20 03:16:00,15.7,9.2,30.34,NE,49,0.0,0.0,75,0.00,,,-99.99,Meteorologica,2013-02-20 09:16:00,
2013-02-20 03:21:00,15.6,9.5,30.33,NNE,23,0.0,5.8,76,0.00,,,-99.99,Meteorologica,2013-02-20 09:21:00,
2013-02-20 03:26:00,15.6,9.3,30.34,NNE,23,0.0,0.0,75,0.00,,,-99.99,Meteorologica,2013-02-20 09:26:00,
2013-02-20 03:31:00,15.6,9.4,30.34,East,80,0.0,6.3,76,0.00,,,-99.99,Meteorologica,2013-02-20 09:31:00,
2013-02-20 03:36:00,15.5,9.4,30.33,NNE,15,0.2,4.6,76,0.00,,,-99.99,Meteorologica,2013-02-20 09:36:00,
2013-02-20 03:41:00,15.4,9.3,30.34,ENE,57,4.1,6.5,76,0.00,,,-99.99,Meteorologica,2013-02-20 09:41:00,
2013-02-20 03:46:00,15.5,9.6,30.33,NNE,15,0.0,4.3,76,0.00,,,-99.99,Meteorologica,2013-02-20 09:46:00,
2013-02-20 03:51:00,15.6,9.7,30.32,ENE,77,5.3,7.3,76,0.00,,,-99.99,Meteorologica,2013-02-20 09:51:00,
2013-02-20 03:56:00,15.5,9.7,30.32,NNE,15,2.3,9.3,77,0.00,,,-99.99,Meteorologica,2013-02-20 09:56:00,
2013-02-20 04:01:00,15.4,9.6,30.32,ENE,73,0.8,10.4,77,0.00,,,-99.99,Meteorologica,2013-02-20 10:01:00,
2013-02-20 04:06:00,15.4,9.6,30.32,East,93,0.5,7.2,77,0.00,,,-99.99,Meteorologica,2013-02-20 10:06:00,
2013-02-20 04:11:00,15.4,9.7,30.32,NNE,21,2.2,8.6,77,0.00,,,-99.99,Meteorologica,2013-02-20 10:11:00,
2013-02-20 04:16:00,15.4,9.6,30.32,NNE,21,0.0,0.0,77,0.00,,,-99.99,Meteorologica,2013-02-20 10:16:00,
2013-02-20 04:21:00,15.4,9.7,30.32,NNE,21,0.0,0.0,77,0.00,,,-99.99,Meteorologica,2013-02-20 10:21:00,
2013-02-20 04:26:00,15.4,9.8,30.31,NNE,21,0.0,0.0,77,0.00,,,-99.99,Meteorologica,2013-02-20 10:26:00,
2013-02-20 04:31:00,15.4,9.8,30.31,NNE,32,0.0,8.3,78,0.00,,,-99.99,Meteorologica,2013-02-20 10:31:00,
2013-02-20 04:36:00,15.4,9.8,30.31,NE,43,4.8,8.7,78,0.00,,,-99.99,Meteorologica,2013-02-20 10:36:00,
2013-02-20 04:41:00,15.5,9.8,30.32,ENE,70,0.0,5.1,77,0.00,,,-99.99,Meteorologica,2013-02-20 10:41:00,
2013-02-20 04:46:00,15.4,9.9,30.32,East,83,0.7,4.6,78,0.00,,,-99.99,Meteorologica,2013-02-20 10:46:00,
2013-02-20 04:51:00,15.4,9.9,30.32,NNE,32,2.6,7.4,78,0.00,,,-99.99,Meteorologica,2013-02-20 10:51:00,
2013-02-20 04:56:00,15.4,9.7,30.33,NE,55,0.0,7.8,77,0.00,,,-99.99,Meteorologica,2013-02-20 10:56:00,
2013-02-20 05:01:00,15.4,9.9,30.32,ENE,66,0.0,5.0,78,0.00,,,-99.99,Meteorologica,2013-02-20 11:01:00,
2013-02-20 05:06:00,15.4,9.8,30.33,NE,39,2.6,6.7,78,0.00,,,-99.99,Meteorologica,2013-02-20 11:06:00,
2013-02-20 05:11:00,15.5,10.0,30.32,ENE,73,0.0,7.3,78,0.00,,,-99.99,Meteorologica,2013-02-20 11:11:00,
2013-02-20 05:16:00,15.6,9.9,30.32,NE,49,0.5,5.2,77,0.00,,,-99.99,Meteorologica,2013-02-20 11:16:00,
2013-02-20 05:21:00,15.3,9.3,30.33,ESE,108,4.0,8.7,76,0.00,,,-99.99,Meteorologica,2013-02-20 11:21:00,
2013-02-20 05:26:00,15.0,9.2,30.33,SE,134,4.2,7.0,77,0.00,,,-99.99,Meteorologica,2013-02-20 11:26:00,
2013-02-20 05:31:00,15.1,9.4,30.32,NE,38,2.6,7.6,77,0.00,,,-99.99,Meteorologica,2013-02-20 11:31:00,
2013-02-20 05:36:00,15.1,9.5,30.32,NE,55,0.0,5.8,77,0.00,,,-99.99,Meteorologica,2013-02-20 11:36:00,
2013-02-20 05:41:00,15.1,9.4,30.33,NE,46,0.0,5.3,77,0.00,,,-99.99,Meteorologica,2013-02-20 11:41:00,
2013-02-20 05:46:00,14.9,9.4,30.33,NE,46,0.0,0.0,78,0.00,,,-99.99,Meteorologica,2013-02-20 11:46:00,
2013-02-20 05:51:00,14.9,9.3,30.33,NE,46,0.0,0.0,78,0.00,,,-99.99,Meteorologica,2013-02-20 11:51:00,
2013-02-20 05:56:00,14.7,9.2,30.33,ESE,119,0.6,5.4,78,0.00,,,-99.99,Meteorologica,2013-02-20 11:56:00,
2013-02-20 06:01:00,14.7,9.2,30.33,ESE,119,0.0,0.0,78,0.00,,,-99.99,Meteorologica,2013-02-20 12:01:00,
2013-02-20 06:06:00,14.6,9.3,30.33,ESE,119,0.0,0.0,78,0.00,,,-99.99,Meteorologica,2013-02-20 12:06:00,
2013-02-20 06:11:00,14.5,9.2,30.33,NE,45,0.0,3.5,79,0.00,,,-99.99,Meteorologica,2013-02-20 12:11:00,
2013-02-20 06:16:00,14.4,9.1,30.32,NE,45,0.0,4.2,79,0.00,,,-99.99,Meteorologica,2013-02-20 12:16:00,
2013-02-20 06:21:00,14.4,9.2,30.33,NE,45,0.0,0.0,79,0.00,,,-99.99,Meteorologica,2013-02-20 12:21:00,
2013-02-20 06:26:00,14.2,9.1,30.32,NE,39,0.0,3.4,79,0.00,,,-99.99,Meteorologica,2013-02-20 12:26:00,
2013-02-20 06:31:00,14.1,9.0,30.32,NE,39,0.0,0.0,79,0.00,,,-99.99,Meteorologica,2013-02-20 12:31:00,
2013-02-20 06:36:00,14.0,9.0,30.34,NE,39,0.0,0.0,80,0.00,,,-99.99,Meteorologica,2013-02-20 12:36:00,
2013-02-20 06:41:00,13.8,8.8,30.33,NE,39,0.0,0.0,80,0.00,,,-99.99,Meteorologica,2013-02-20 12:41:00,
2013-02-20 06:46:00,13.7,8.5,30.34,NE,39,0.0,0.0,79,0.00,,,-99.99,Meteorologica,2013-02-20 12:46:00,
2013-02-20 06:51:00,13.5,8.2,30.34,NE,39,0.0,0.0,79,0.00,,,-99.99,Meteorologica,2013-02-20 12:51:00,
2013-02-20 06:56:00,13.4,8.1,30.34,NE,39,0.0,0.0,79,0.00,,,-99.99,Meteorologica,2013-02-20 12:56:00,
2013-02-20 07:01:00,13.3,8.2,30.34,East,88,0.0,7.3,79,0.00,,,-99.99,Meteorologica,2013-02-20 13:01:00,
2013-02-20 07:06:00,13.4,8.3,30.34,East,88,0.0,0.0,79,0.00,,,-99.99,Meteorologica,2013-02-20 13:06:00,
2013-02-20 07:11:00,13.2,8.2,30.35,ENE,59,2.5,5.6,80,0.00,,,-99.99,Meteorologica,2013-02-20 13:11:00,
2013-02-20 07:16:00,13.2,8.3,30.35,ENE,59,0.0,0.0,80,0.00,,,-99.99,Meteorologica,2013-02-20 13:16:00,
2013-02-20 07:21:00,13.0,8.1,30.34,East,97,1.1,7.3,80,0.00,,,-99.99,Meteorologica,2013-02-20 13:21:00,
2013-02-20 07:26:00,12.9,8.1,30.35,ENE,69,1.5,9.5,80,0.00,,,-99.99,Meteorologica,2013-02-20 13:26:00,
2013-02-20 07:31:00,12.9,8.0,30.35,ENE,69,0.0,5.2,80,0.00,,,-99.99,Meteorologica,2013-02-20 13:31:00,
2013-02-20 07:36:00,13.2,8.2,30.35,ENE,69,0.0,0.0,80,0.00,,,-99.99,Meteorologica,2013-02-20 13:36:00,
2013-02-20 07:41:00,13.1,8.2,30.35,ENE,77,2.2,6.2,80,0.00,,,-99.99,Meteorologica,2013-02-20 13:41:00,
2013-02-20 07:46:00,12.9,8.1,30.35,East,81,0.0,7.1,80,0.00,,,-99.99,Meteorologica,2013-02-20 13:46:00,
2013-02-20 07:51:00,13.1,8.3,30.35,East,81,0.0,0.0,81,0.00,,,-99.99,Meteorologica,2013-02-20 13:51:00,
2013-02-20 07:56:00,13.2,8.3,30.35,East,98,1.8,6.3,80,0.00,,,-99.99,Meteorologica,2013-02-20 13:56:00,
2013-02-20 08:01:00,13.1,8.2,30.35,NE,56,0.0,2.5,80,0.00,,,-99.99,Meteorologica,2013-02-20 14:01:00,
2013-02-20 08:06:00,13.3,8.5,30.35,NE,56,0.0,0.0,80,0.00,,,-99.99,Meteorologica,2013-02-20 14:06:00,
2013-02-20 08:11:00,13.4,8.4,30.35,NE,56,0.0,0.0,79,0.00,,,-99.99,Meteorologica,2013-02-20 14:11:00,
2013-02-20 08:16:00,13.7,8.8,30.35,NE,56,0.0,0.0,80,0.00,,,-99.99,Meteorologica,2013-02-20 14:16:00,
2013-02-20 08:21:00,13.8,8.5,30.35,East,88,0.0,6.4,79,0.00,,,-99.99,Meteorologica,2013-02-20 14:21:00,
2013-02-20 08:26:00,13.9,8.7,30.36,East,88,0.0,8.3,79,0.00,,,-99.99,Meteorologica,2013-02-20 14:26:00,
2013-02-20 08:31:00,14.0,8.7,30.36,ESE,112,4.7,8.2,79,0.00,,,-99.99,Meteorologica,2013-02-20 14:31:00,
2013-02-20 08:36:00,14.2,9.1,30.36,East,88,3.2,6.8,79,0.00,,,-99.99,Meteorologica,2013-02-20 14:36:00,
2013-02-20 08:41:00,14.4,8.9,30.35,ESE,111,3.7,8.2,78,0.00,,,-99.99,Meteorologica,2013-02-20 14:41:00,
2013-02-20 08:46:00,14.3,8.8,30.36,ESE,112,0.6,8.5,78,0.00,,,-99.99,Meteorologica,2013-02-20 14:46:00,
2013-02-20 08:51:00,14.7,9.3,30.35,ESE,112,0.0,0.0,78,0.00,,,-99.99,Meteorologica,2013-02-20 14:51:00,
2013-02-20 08:56:00,14.7,9.1,30.35,SE,124,5.6,9.8,78,0.00,,,-99.99,Meteorologica,2013-02-20 14:56:00,
2013-02-20 09:01:00,15.0,9.2,30.35,East,80,0.1,8.0,77,0.00,,,-99.99,Meteorologica,2013-02-20 15:01:00,
2013-02-20 09:06:00,15.4,9.5,30.35,ESE,110,1.0,9.1,77,0.00,,,-99.99,Meteorologica,2013-02-20 15:06:00,
2013-02-20 09:11:00,15.7,9.5,30.34,SE,135,1.2,5.8,76,0.00,,,-99.99,Meteorologica,2013-02-20 15:11:00,
2013-02-20 09:16:00,15.9,10.0,30.35,ESE,105,0.2,6.9,77,0.00,,,-99.99,Meteorologica,2013-02-20 15:16:00,
2013-02-20 09:21:00,16.1,10.0,30.35,East,95,2.6,7.7,76,0.00,,,-99.99,Meteorologica,2013-02-20 15:21:00,
2013-02-20 09:26:00,16.1,9.5,30.35,SE,138,6.1,9.1,74,0.00,,,-99.99,Meteorologica,2013-02-20 15:26:00,
2013-02-20 09:31:00,16.2,9.8,30.35,ESE,103,1.6,7.6,75,0.00,,,-99.99,Meteorologica,2013-02-20 15:31:00,
2013-02-20 09:36:00,16.4,9.8,30.35,ESE,102,1.3,7.2,74,0.00,,,-99.99,Meteorologica,2013-02-20 15:36:00,
2013-02-20 09:41:00,16.5,10.2,30.35,East,94,1.6,6.8,75,0.00,,,-99.99,Meteorologica,2013-02-20 15:41:00,
2013-02-20 09:46:00,16.6,9.9,30.36,NE,49,4.1,8.7,74,0.00,,,-99.99,Meteorologica,2013-02-20 15:46:00,
2013-02-20 09:51:00,16.7,10.0,30.35,SE,138,4.1,6.9,74,0.00,,,-99.99,Meteorologica,2013-02-20 15:51:00,
2013-02-20 09:56:00,16.9,10.1,30.35,East,79,2.4,10.3,73,0.00,,,-99.99,Meteorologica,2013-02-20 15:56:00,
2013-02-20 10:01:00,17.1,10.3,30.36,ESE,117,2.6,9.7,74,0.00,,,-99.99,Meteorologica,2013-02-20 16:01:00,
2013-02-20 10:06:00,17.4,10.4,30.38,East,95,0.2,7.4,73,0.00,,,-99.99,Meteorologica,2013-02-20 16:06:00,
2013-02-20 10:11:00,17.7,10.6,30.38,ESE,111,0.0,4.5,73,0.00,,,-99.99,Meteorologica,2013-02-20 16:11:00,
2013-02-20 10:16:00,18.0,10.8,30.38,SE,135,0.0,6.8,72,0.00,,,-99.99,Meteorologica,2013-02-20 16:16:00,
2013-02-20 10:21:00,18.4,11.1,30.39,SE,135,0.0,0.0,72,0.00,,,-99.99,Meteorologica,2013-02-20 16:21:00,
2013-02-20 10:26:00,18.7,11.2,30.38,South,170,0.0,8.6,71,0.00,,,-99.99,Meteorologica,2013-02-20 16:26:00,
2013-02-20 10:31:00,18.9,11.4,30.39,South,187,2.4,7.9,72,0.00,,,-99.99,Meteorologica,2013-02-20 16:31:00,
2013-02-20 10:36:00,19.1,11.6,30.38,SSE,148,3.4,7.6,71,0.00,,,-99.99,Meteorologica,2013-02-20 16:36:00,
2013-02-20 10:41:00,19.0,11.5,30.38,SSE,149,3.0,8.1,72,0.00,,,-99.99,Meteorologica,2013-02-20 16:41:00,
2013-02-20 10:46:00,19.0,11.5,30.38,SE,130,2.2,7.3,71,0.00,,,-99.99,Meteorologica,2013-02-20 16:46:00,
2013-02-20 10:51:00,18.9,11.2,30.37,ESE,119,4.8,8.9,71,0.00,,,-99.99,Meteorologica,2013-02-20 16:51:00,
2013-02-20 10:56:00,19.0,11.2,30.36,SSE,148,4.9,10.7,71,0.00,,,-99.99,Meteorologica,2013-02-20 16:56:00,
2013-02-20 11:01:00,19.1,11.3,30.36,East,83,5.0,9.5,70,0.00,,,-99.99,Meteorologica,2013-02-20 17:01:00,
2013-02-20 11:06:00,18.9,11.3,30.35,ESE,116,5.8,12.8,71,0.00,,,-99.99,Meteorologica,2013-02-20 17:06:00,
2013-02-20 11:11:00,18.9,11.4,30.34,East,87,0.0,10.7,72,0.00,,,-99.99,Meteorologica,2013-02-20 17:11:00,
2013-02-20 11:16:00,19.0,11.4,30.34,SE,127,1.9,10.5,71,0.00,,,-99.99,Meteorologica,2013-02-20 17:16:00,
2013-02-20 11:21:00,19.2,11.5,30.35,ESE,117,5.5,11.6,71,0.00,,,-99.99,Meteorologica,2013-02-20 17:21:00,
2013-02-20 11:26:00,19.8,11.8,30.35,ESE,121,4.5,11.1,70,0.00,,,-99.99,Meteorologica,2013-02-20 17:26:00,
2013-02-20 11:31:00,20.1,11.7,30.35,East,90,0.0,7.8,69,0.00,,,-99.99,Meteorologica,2013-02-20 17:31:00,
2013-02-20 11:36:00,20.3,12.2,30.34,ESE,108,0.0,7.1,70,0.00,,,-99.99,Meteorologica,2013-02-20 17:36:00,
2013-02-20 11:41:00,20.7,12.1,30.34,SE,142,2.0,5.9,68,0.00,,,-99.99,Meteorologica,2013-02-20 17:41:00,
2013-02-20 11:46:00,20.8,11.7,30.34,ESE,121,7.3,10.3,67,0.00,,,-99.99,Meteorologica,2013-02-20 17:46:00,
2013-02-20 11:51:00,21.0,12.1,30.33,East,98,0.0,6.7,68,0.00,,,-99.99,Meteorologica,2013-02-20 17:51:00,
2013-02-20 11:56:00,21.0,12.0,30.32,ESE,122,3.0,9.1,67,0.00,,,-99.99,Meteorologica,2013-02-20 17:56:00,
2013-02-20 12:01:00,21.3,12.2,30.32,SSE,148,0.0,9.2,67,0.00,,,-99.99,Meteorologica,2013-02-20 18:01:00,
2013-02-20 12:06:00,21.7,12.6,30.32,SE,130,0.5,7.9,67,0.00,,,-99.99,Meteorologica,2013-02-20 18:06:00,
2013-02-20 12:11:00,21.9,12.4,30.32,ESE,102,4.9,10.0,66,0.00,,,-99.99,Meteorologica,2013-02-20 18:11:00,
2013-02-20 12:16:00,22.0,12.4,30.31,SE,125,5.8,10.4,66,0.00,,,-99.99,Meteorologica,2013-02-20 18:16:00,
2013-02-20 12:22:00,22.4,12.7,30.30,ENE,59,0.6,0.0,65,0.00,,,-99.99,Meteorologica,2013-02-20 18:22:00,
2013-02-20 12:27:00,22.4,12.8,30.31,ESE,103,4.8,7.4,66,0.00,,,-99.99,Meteorologica,2013-02-20 18:27:00,
2013-02-20 12:32:00,22.6,12.7,30.30,ESE,122,4.8,7.0,65,0.00,,,-99.99,Meteorologica,2013-02-20 18:32:00,
2013-02-20 12:37:00,22.6,12.6,30.30,NE,44,6.7,9.2,64,0.00,,,-99.99,Meteorologica,2013-02-20 18:37:00,
2013-02-20 12:42:00,22.9,12.8,30.29,East,93,3.7,7.6,64,0.00,,,-99.99,Meteorologica,2013-02-20 18:42:00,
2013-02-20 12:47:00,23.2,13.2,30.29,SSE,149,1.6,6.0,64,0.00,,,-99.99,Meteorologica,2013-02-20 18:47:00,
2013-02-20 12:52:00,23.2,12.6,30.28,East,97,5.8,6.9,63,0.00,,,-99.99,Meteorologica,2013-02-20 18:52:00,
2013-02-20 12:57:00,23.2,13.2,30.28,NE,56,0.0,0.0,64,0.00,,,-99.99,Meteorologica,2013-02-20 18:57:00,
2013-02-20 13:02:00,23.2,12.9,30.28,ESE,104,3.6,10.8,64,0.00,,,-99.99,Meteorologica,2013-02-20 19:02:00,
2013-02-20 13:07:00,23.3,13.1,30.28,SE,134,1.4,7.2,64,0.00,,,-99.99,Meteorologica,2013-02-20 19:07:00,
2013-02-20 13:12:00,23.7,13.1,30.27,SE,139,4.5,10.0,63,0.00,,,-99.99,Meteorologica,2013-02-20 19:12:00,
2013-02-20 13:17:00,23.7,12.9,30.27,East,100,7.5,9.0,62,0.00,,,-99.99,Meteorologica,2013-02-20 19:17:00,
2013-02-20 13:22:00,24.0,13.2,30.27,ESE,121,2.4,3.0,62,0.00,,,-99.99,Meteorologica,2013-02-20 19:22:00,
2013-02-20 13:27:00,24.2,13.0,30.27,East,94,5.3,7.3,61,0.00,,,-99.99,Meteorologica,2013-02-20 19:27:00,
2013-02-20 13:32:00,24.7,13.4,30.27,SE,125,7.1,9.7,61,0.00,,,-99.99,Meteorologica,2013-02-20 19:32:00,
2013-02-20 13:37:00,24.7,13.3,30.26,East,100,4.3,6.6,61,0.00,,,-99.99,Meteorologica,2013-02-20 19:37:00,
2013-02-20 13:42:00,24.5,13.2,30.25,SE,124,4.8,8.2,61,0.00,,,-99.99,Meteorologica,2013-02-20 19:42:00,
2013-02-20 13:47:00,24.7,13.1,30.25,East,79,1.9,0.0,60,0.00,,,-99.99,Meteorologica,2013-02-20 19:47:00,
2013-02-20 13:52:00,24.6,13.2,30.25,East,94,4.0,10.7,61,0.00,,,-99.99,Meteorologica,2013-02-20 19:52:00,
2013-02-20 13:57:00,24.8,13.1,30.24,ESE,112,8.2,11.8,60,0.00,,,-99.99,Meteorologica,2013-02-20 19:57:00,
2013-02-20 14:02:00,24.9,13.5,30.24,SE,135,4.4,13.5,61,0.00,,,-99.99,Meteorologica,2013-02-20 20:02:00,
2013-02-20 14:07:00,25.0,13.1,30.24,SE,146,6.7,8.6,60,0.00,,,-99.99,Meteorologica,2013-02-20 20:07:00,
2013-02-20 14:12:00,25.1,13.5,30.25,East,91,6.7,8.2,61,0.00,,,-99.99,Meteorologica,2013-02-20 20:12:00,
2013-02-20 14:17:00,25.5,13.5,30.25,South,184,4.1,6.3,59,0.00,,,-99.99,Meteorologica,2013-02-20 20:17:00,
2013-02-20 14:22:00,25.8,13.9,30.24,NE,43,2.5,3.3,60,0.00,,,-99.99,Meteorologica,2013-02-20 20:22:00,
2013-02-20 14:27:00,25.6,13.0,30.24,ESE,112,6.3,8.0,58,0.00,,,-99.99,Meteorologica,2013-02-20 20:27:00,
2013-02-20 14:32:00,25.6,13.6,30.24,ESE,114,6.4,8.8,59,0.00,,,-99.99,Meteorologica,2013-02-20 20:32:00,
2013-02-20 14:37:00,25.8,13.3,30.24,SE,127,8.3,10.4,58,0.00,,,-99.99,Meteorologica,2013-02-20 20:37:00,
2013-02-20 14:42:00,26.0,13.8,30.24,ESE,115,6.5,8.9,59,0.00,,,-99.99,Meteorologica,2013-02-20 20:42:00,
2013-02-20 14:47:00,25.8,13.9,30.24,East,82,3.9,7.7,59,0.00,,,-99.99,Meteorologica,2013-02-20 20:47:00,
2013-02-20 14:52:00,26.3,13.8,30.23,East,99,5.4,7.1,58,0.00,,,-99.99,Meteorologica,2013-02-20 20:52:00,
2013-02-20 14:57:00,26.2,13.6,30.24,East,91,6.1,9.7,58,0.00,,,-99.99,Meteorologica,2013-02-20 20:57:00,
2013-02-20 15:02:00,26.5,14.2,30.23,East,101,1.2,3.4,59,0.00,,,-99.99,Meteorologica,2013-02-20 21:02:00,
2013-02-20 15:07:00,26.7,13.9,30.23,East,98,8.3,14.8,58,0.00,,,-99.99,Meteorologica,2013-02-20 21:07:00,
2013-02-20 15:12:00,26.7,13.8,30.23,SE,124,6.4,9.1,57,0.00,,,-99.99,Meteorologica,2013-02-20 21:12:00,
2013-02-20 15:17:00,26.6,13.8,30.22,East,101,5.8,9.3,58,0.00,,,-99.99,Meteorologica,2013-02-20 21:17:00,
2013-02-20 15:22:00,27.2,14.4,30.23,ESE,122,0.0,0.0,58,0.00,,,-99.99,Meteorologica,2013-02-20 21:22:00,
2013-02-20 15:27:00,27.4,14.0,30.23,ESE,106,7.9,12.6,56,0.00,,,-99.99,Meteorologica,2013-02-20 21:27:00,
2013-02-20 15:32:00,27.0,14.2,30.23,SE,124,6.8,10.0,58,0.00,,,-99.99,Meteorologica,2013-02-20 21:32:00,
2013-02-20 15:37:00,26.7,13.9,30.22,ESE,114,5.5,8.7,57,0.00,,,-99.99,Meteorologica,2013-02-20 21:37:00,
2013-02-20 15:42:00,27.0,14.1,30.22,ESE,111,1.4,5.8,57,0.00,,,-99.99,Meteorologica,2013-02-20 21:42:00,
2013-02-20 15:47:00,27.2,14.3,30.22,ENE,62,1.8,8.1,57,0.00,,,-99.99,Meteorologica,2013-02-20 21:47:00,
2013-02-20 15:52:00,27.3,14.1,30.22,East,80,1.3,5.9,57,0.00,,,-99.99,Meteorologica,2013-02-20 21:52:00,
2013-02-20 15:57:00,27.2,14.0,30.22,East,80,0.0,0.0,57,0.00,,,-99.99,Meteorologica,2013-02-20 21:57:00,
2013-02-20 16:02:00,26.9,13.7,30.23,ESE,121,6.4,10.5,56,0.00,,,-99.99,Meteorologica,2013-02-20 22:02:00,
2013-02-20 16:07:00,26.6,13.8,30.22,East,96,5.9,11.2,57,0.00,,,-99.99,Meteorologica,2013-02-20 22:07:00,
2013-02-20 16:12:00,26.5,13.6,30.22,SE,134,2.7,4.5,57,0.00,,,-99.99,Meteorologica,2013-02-20 22:12:00,
2013-02-20 16:17:00,26.5,13.5,30.22,SE,141,1.7,0.0,57,0.00,,,-99.99,Meteorologica,2013-02-20 22:17:00,
2013-02-20 16:22:00,26.8,13.7,30.21,ESE,119,4.9,6.4,57,0.00,,,-99.99,Meteorologica,2013-02-20 22:22:00,
2013-02-20 16:27:00,26.6,13.7,30.20,ESE,103,0.7,5.3,57,0.00,,,-99.99,Meteorologica,2013-02-20 22:27:00,
2013-02-20 16:32:00,25.9,13.0,30.20,East,101,10.9,15.4,57,0.00,,,-99.99,Meteorologica,2013-02-20 22:32:00,
2013-02-20 16:37:00,26.3,13.4,30.21,East,97,4.3,6.8,57,0.00,,,-99.99,Meteorologica,2013-02-20 22:37:00,
2013-02-20 16:42:00,26.4,13.6,30.21,ENE,65,5.1,5.6,58,0.00,,,-99.99,Meteorologica,2013-02-20 22:42:00,
2013-02-20 16:47:00,26.3,13.8,30.21,ESE,109,5.3,7.3,58,0.00,,,-99.99,Meteorologica,2013-02-20 22:47:00,
2013-02-20 16:52:00,26.2,13.5,30.20,ENE,59,2.4,4.9,58,0.00,,,-99.99,Meteorologica,2013-02-20 22:52:00,
2013-02-20 16:57:00,26.1,13.7,30.20,East,100,3.6,6.5,58,0.00,,,-99.99,Meteorologica,2013-02-20 22:57:00,
2013-02-20 17:02:00,25.8,13.4,30.20,East,82,6.8,10.2,58,0.00,,,-99.99,Meteorologica,2013-02-20 23:02:00,
2013-02-20 17:07:00,25.9,13.8,30.20,ESE,121,0.0,0.0,59,0.00,,,-99.99,Meteorologica,2013-02-20 23:07:00,
2013-02-20 17:12:00,25.8,14.1,30.20,ESE,122,7.4,9.1,60,0.00,,,-99.99,Meteorologica,2013-02-20 23:12:00,
2013-02-20 17:17:00,25.3,14.0,30.20,ESE,111,7.4,11.8,61,0.00,,,-99.99,Meteorologica,2013-02-20 23:17:00,
2013-02-20 17:22:00,25.4,14.3,30.19,SSE,148,8.2,10.0,62,0.00,,,-99.99,Meteorologica,2013-02-20 23:22:00,
2013-02-20 17:27:00,25.3,14.3,30.20,ESE,119,8.0,9.8,62,0.00,,,-99.99,Meteorologica,2013-02-20 23:27:00,
2013-02-20 17:32:00,25.4,14.5,30.19,SSE,166,0.6,4.9,62,0.00,,,-99.99,Meteorologica,2013-02-20 23:32:00,
2013-02-20 17:37:00,25.2,14.3,30.18,ENE,57,7.6,8.9,62,0.00,,,-99.99,Meteorologica,2013-02-20 23:37:00,
2013-02-20 17:42:00,24.9,14.2,30.18,ESE,115,3.0,9.0,63,0.00,,,-99.99,Meteorologica,2013-02-20 23:42:00,
2013-02-20 17:47:00,25.0,14.5,30.17,SE,127,5.3,7.9,63,0.00,,,-99.99,Meteorologica,2013-02-20 23:47:00,
2013-02-20 17:52:00,24.9,14.4,30.18,ESE,119,5.6,6.6,63,0.00,,,-99.99,Meteorologica,2013-02-20 23:52:00,
2013-02-20 17:57:00,24.8,14.3,30.17,ESE,106,7.7,13.9,63,0.00,,,-99.99,Meteorologica,2013-02-20 23:57:00,
2013-02-20 18:02:00,24.8,14.6,30.17,ESE,119,6.7,6.9,64,0.00,,,-99.99,Meteorologica,2013-02-21 00:02:00,
2013-02-20 18:07:00,24.6,14.5,30.17,SE,128,5.4,7.8,64,0.00,,,-99.99,Meteorologica,2013-02-21 00:07:00,
2013-02-20 18:12:00,24.7,14.7,30.16,East,86,6.4,7.4,65,0.00,,,-99.99,Meteorologica,2013-02-21 00:12:00,
2013-02-20 18:17:00,24.8,14.9,30.17,East,89,4.7,7.0,65,0.00,,,-99.99,Meteorologica,2013-02-21 00:17:00,
2013-02-20 18:22:00,24.7,15.0,30.17,East,91,6.0,10.1,65,0.00,,,-99.99,Meteorologica,2013-02-21 00:22:00,
2013-02-20 18:27:00,24.7,15.1,30.17,SE,127,2.9,7.1,66,0.00,,,-99.99,Meteorologica,2013-02-21 00:27:00,
2013-02-20 18:32:00,24.8,15.2,30.17,ENE,66,0.1,0.0,66,0.00,,,-99.99,Meteorologica,2013-02-21 00:32:00,
2013-02-20 18:37:00,24.7,15.2,30.17,ESE,117,4.2,5.3,66,0.00,,,-99.99,Meteorologica,2013-02-21 00:37:00,
2013-02-20 18:42:00,24.5,15.4,30.17,ESE,104,6.6,9.1,67,0.00,,,-99.99,Meteorologica,2013-02-21 00:42:00,
2013-02-20 18:47:00,24.4,15.5,30.16,ESE,104,5.5,8.8,68,0.00,,,-99.99,Meteorologica,2013-02-21 00:47:00,
2013-02-20 18:52:00,24.5,15.8,30.16,ENE,61,5.5,8.7,68,0.00,,,-99.99,Meteorologica,2013-02-21 00:52:00,
2013-02-20 18:57:00,24.6,16.2,30.16,SE,125,5.2,8.4,69,0.00,,,-99.99,Meteorologica,2013-02-21 00:57:00,
2013-02-20 19:02:00,24.5,16.0,30.16,ESE,110,0.0,0.0,69,0.00,,,-99.99,Meteorologica,2013-02-21 01:02:00,
2013-02-20 19:07:00,24.4,15.9,30.17,ESE,112,4.5,8.1,69,0.00,,,-99.99,Meteorologica,2013-02-21 01:07:00,
2013-02-20 19:12:00,24.5,16.0,30.16,North,11,0.0,0.0,69,0.00,,,-99.99,Meteorologica,2013-02-21 01:12:00,
2013-02-20 19:17:00,24.5,16.2,30.16,ENE,67,5.5,7.1,70,0.00,,,-99.99,Meteorologica,2013-02-21 01:17:00,
2013-02-20 19:22:00,24.5,16.0,30.16,ESE,104,2.8,7.2,69,0.00,,,-99.99,Meteorologica,2013-02-21 01:22:00,
2013-02-20 19:27:00,24.5,15.8,30.16,NE,50,7.3,11.0,68,0.00,,,-99.99,Meteorologica,2013-02-21 01:27:00,
2013-02-20 19:32:00,24.6,15.8,30.17,ESE,103,1.9,0.0,68,0.00,,,-99.99,Meteorologica,2013-02-21 01:32:00,
2013-02-20 19:37:00,24.4,15.6,30.16,SE,127,0.4,3.4,68,0.00,,,-99.99,Meteorologica,2013-02-21 01:37:00,
2013-02-20 19:42:00,24.4,15.7,30.17,ESE,102,5.9,8.0,68,0.00,,,-99.99,Meteorologica,2013-02-21 01:42:00,
2013-02-20 19:47:00,24.4,15.8,30.16,ESE,106,3.3,5.8,69,0.00,,,-99.99,Meteorologica,2013-02-21 01:47:00,
2013-02-20 19:52:00,24.4,15.5,30.16,ENE,76,0.0,0.0,68,0.00,,,-99.99,Meteorologica,2013-02-21 01:52:00,
2013-02-20 19:57:00,24.4,15.2,30.16,SE,145,3.5,4.8,67,0.00,,,-99.99,Meteorologica,2013-02-21 01:57:00,
2013-02-20 20:02:00,24.6,15.4,30.15,ENE,68,1.9,9.1,67,0.00,,,-99.99,Meteorologica,2013-02-21 02:02:00,
2013-02-20 20:07:00,24.7,15.3,30.15,ENE,74,3.0,9.9,66,0.00,,,-99.99,Meteorologica,2013-02-21 02:07:00,
2013-02-20 20:12:00,24.8,15.3,30.16,ENE,73,0.7,4.6,66,0.00,,,-99.99,Meteorologica,2013-02-21 02:12:00,
2013-02-20 20:17:00,24.9,15.2,30.17,SE,138,0.2,0.0,66,0.00,,,-99.99,Meteorologica,2013-02-21 02:17:00,
2013-02-20 20:22:00,25.1,15.2,30.18,SE,141,3.3,6.4,65,0.00,,,-99.99,Meteorologica,2013-02-21 02:22:00,
2013-02-20 20:27:00,25.0,14.9,30.18,SE,129,3.6,6.7,64,0.00,,,-99.99,Meteorologica,2013-02-21 02:27:00,
2013-02-20 20:32:00,25.1,15.1,30.18,ESE,111,0.2,0.0,65,0.00,,,-99.99,Meteorologica,2013-02-21 02:32:00,
2013-02-20 20:37:00,25.0,14.7,30.17,ENE,73,0.0,0.0,64,0.00,,,-99.99,Meteorologica,2013-02-21 02:37:00,
2013-02-20 20:42:00,25.2,15.0,30.17,ENE,73,0.0,0.0,64,0.00,,,-99.99,Meteorologica,2013-02-21 02:42:00,
2013-02-20 20:47:00,25.1,14.6,30.17,ESE,110,0.0,0.0,63,0.00,,,-99.99,Meteorologica,2013-02-21 02:47:00,
2013-02-20 20:52:00,25.1,14.4,30.18,East,92,6.2,8.6,63,0.00,,,-99.99,Meteorologica,2013-02-21 02:52:00,
2013-02-20 20:58:00,25.2,25.2,30.18,ESE,105,4.2,7.2,100,0.00,,,-99.99,Meteorologica,2013-02-21 02:58:00,
2013-02-20 21:03:00,25.0,14.2,30.18,East,100,8.5,12.8,62,0.00,,,-99.99,Meteorologica,2013-02-21 03:03:00,
2013-02-20 21:08:00,25.1,14.3,30.18,ESE,120,4.8,9.5,62,0.00,,,-99.99,Meteorologica,2013-02-21 03:08:00,
2013-02-20 21:13:00,25.3,14.7,30.19,ENE,73,1.1,5.5,63,0.00,,,-99.99,Meteorologica,2013-02-21 03:13:00,
2013-02-20 21:18:00,25.3,14.7,30.18,ESE,115,0.3,0.0,63,0.00,,,-99.99,Meteorologica,2013-02-21 03:18:00,
2013-02-20 21:23:00,25.5,14.8,30.19,ESE,107,0.0,0.0,63,0.00,,,-99.99,Meteorologica,2013-02-21 03:23:00,
2013-02-20 21:28:00,25.4,14.7,30.19,ESE,111,5.7,10.4,63,0.00,,,-99.99,Meteorologica,2013-02-21 03:28:00,
2013-02-20 21:33:00,25.3,14.6,30.19,SE,127,4.2,6.8,63,0.00,,,-99.99,Meteorologica,2013-02-21 03:33:00,
2013-02-20 21:38:00,25.3,14.6,30.19,ENE,62,0.0,3.5,63,0.00,,,-99.99,Meteorologica,2013-02-21 03:38:00,
2013-02-20 21:43:00,25.4,14.8,30.19,East,98,3.2,6.9,63,0.00,,,-99.99,Meteorologica,2013-02-21 03:43:00,
2013-02-20 21:48:00,25.6,14.9,30.18,ESE,117,0.7,4.8,63,0.00,,,-99.99,Meteorologica,2013-02-21 03:48:00,
2013-02-20 21:53:00,25.4,14.9,30.18,NE,45,0.0,0.0,63,0.00,,,-99.99,Meteorologica,2013-02-21 03:53:00,
2013-02-20 21:58:00,25.4,14.8,30.19,SSE,148,2.8,8.6,63,0.00,,,-99.99,Meteorologica,2013-02-21 03:58:00,
2013-02-20 22:03:00,25.4,14.7,30.19,ESE,104,1.0,7.1,63,0.00,,,-99.99,Meteorologica,2013-02-21 04:03:00,
2013-02-20 22:08:00,25.4,14.8,30.19,SE,132,0.1,1.2,63,0.00,,,-99.99,Meteorologica,2013-02-21 04:08:00,
2013-02-20 22:14:00,25.4,14.6,30.19,East,81,5.3,9.3,63,0.00,,,-99.99,Meteorologica,2013-02-21 04:14:00,
2013-02-20 22:19:00,25.5,14.8,30.19,ESE,102,2.8,5.6,63,0.00,,,-99.99,Meteorologica,2013-02-21 04:19:00,
2013-02-20 22:24:00,25.6,14.8,30.20,ESE,103,0.0,4.6,63,0.00,,,-99.99,Meteorologica,2013-02-21 04:24:00,
2013-02-20 22:29:00,25.7,14.9,30.19,ESE,103,0.0,8.9,62,0.00,,,-99.99,Meteorologica,2013-02-21 04:29:00,
2013-02-20 22:34:00,25.5,14.7,30.20,East,79,2.7,6.0,62,0.00,,,-99.99,Meteorologica,2013-02-21 04:34:00,
2013-02-20 22:39:00,25.6,14.8,30.20,ESE,116,1.8,6.3,63,0.00,,,-99.99,Meteorologica,2013-02-21 04:39:00,
2013-02-20 22:44:00,25.6,14.8,30.20,ESE,118,2.0,7.6,63,0.00,,,-99.99,Meteorologica,2013-02-21 04:44:00,
2013-02-20 22:49:00,25.6,15.0,30.19,ENE,71,3.6,7.6,63,0.00,,,-99.99,Meteorologica,2013-02-21 04:49:00,
2013-02-20 22:54:00,25.3,14.6,30.19,SSE,148,0.0,0.0,63,0.00,,,-99.99,Meteorologica,2013-02-21 04:54:00,
2013-02-20 22:59:00,25.5,14.8,30.19,ESE,108,4.8,7.8,63,0.00,,,-99.99,Meteorologica,2013-02-21 04:59:00,
2013-02-20 23:01:00,25.3,14.7,30.20,East,100,3.3,7.8,63,0.00,,,-99.99,Meteorologica,2013-02-21 05:01:00,
2013-02-20 23:02:00,25.4,14.8,30.20,East,83,5.8,7.4,63,0.00,,,-99.99,Meteorologica,2013-02-21 05:02:00,
2013-02-20 23:04:00,25.5,15.0,30.20,ESE,119,0.0,7.4,63,0.00,,,-99.99,Meteorologica,2013-02-21 05:04:00,
2013-02-20 23:09:00,25.6,15.0,30.20,ESE,119,0.0,0.0,63,0.00,,,-99.99,Meteorologica,2013-02-21 05:09:00,
2013-02-20 23:14:00,25.4,14.7,30.20,ESE,105,4.1,7.9,63,0.00,,,-99.99,Meteorologica,2013-02-21 05:14:00,
2013-02-20 23:19:00,25.5,14.8,30.20,East,87,0.0,3.5,63,0.00,,,-99.99,Meteorologica,2013-02-21 05:19:00,
2013-02-20 23:24:00,25.5,14.9,30.20,ESE,117,6.1,9.2,63,0.00,,,-99.99,Meteorologica,2013-02-21 05:24:00,
2013-02-20 23:29:00,25.4,14.5,30.21,ESE,117,10.0,13.0,62,0.00,,,-99.99,Meteorologica,2013-02-21 05:29:00,
2013-02-20 23:34:00,25.4,14.6,30.21,East,91,5.1,9.6,63,0.00,,,-99.99,Meteorologica,2013-02-21 05:34:00,
2013-02-20 23:39:00,25.2,14.6,30.21,ENE,58,4.2,8.6,63,0.00,,,-99.99,Meteorologica,2013-02-21 05:39:00,
2013-02-20 23:44:00,25.1,14.5,30.19,ESE,103,6.7,9.6,63,0.00,,,-99.99,Meteorologica,2013-02-21 05:44:00,
2013-02-20 23:49:00,25.3,14.9,30.19,East,95,0.4,9.6,64,0.00,,,-99.99,Meteorologica,2013-02-21 05:49:00,
2013-02-20 23:53:00,25.3,14.8,30.19,ESE,107,2.0,6.7,63,0.00,,,-99.99,Meteorologica,2013-02-21 05:53:00,
2013-02-20 23:59:00,25.2,14.7,30.19,ESE,104,0.8,7.8,63,0.00,,,-99.99,Meteorologica,2013-02-21 05:59:00,